Year,Month,Day,Hour,Minute,Value (Times are PST for temperature in C)
2018,06,18,00,00,16.90
2018,06,18,00,01,16.90
2018,06,18,00,02,16.90
2018,06,18,00,03,16.90
2018,06,18,00,04,16.80
2018,06,18,00,05,16.80
2018,06,18,00,06,16.80
2018,06,18,00,07,16.80
2018,06,18,00,08,16.80
2018,06,18,00,09,16.80
2018,06,18,00,10,16.70
2018,06,18,00,11,16.70
2018,06,18,00,12,16.70
2018,06,18,00,13,16.70
2018,06,18,00,14,16.70
2018,06,18,00,15,16.70
2018,06,18,00,16,16.70
2018,06,18,00,17,16.70
2018,06,18,00,18,16.70
2018,06,18,00,19,16.70
2018,06,18,00,20,16.70
2018,06,18,00,21,16.70
2018,06,18,00,22,16.70
2018,06,18,00,23,16.70
2018,06,18,00,24,16.70
2018,06,18,00,25,16.70
2018,06,18,00,26,16.70
2018,06,18,00,27,16.70
2018,06,18,00,28,16.70
2018,06,18,00,29,16.80
2018,06,18,00,30,16.80
2018,06,18,00,31,16.80
2018,06,18,00,32,16.80
2018,06,18,00,33,16.80
2018,06,18,00,34,16.80
2018,06,18,00,35,16.80
2018,06,18,00,36,16.80
2018,06,18,00,37,16.70
2018,06,18,00,38,16.70
2018,06,18,00,39,16.70
2018,06,18,00,40,16.70
2018,06,18,00,41,16.70
2018,06,18,00,42,16.70
2018,06,18,00,43,16.70
2018,06,18,00,44,16.70
2018,06,18,00,45,16.70
2018,06,18,00,46,16.70
2018,06,18,00,47,16.60
2018,06,18,00,48,16.60
2018,06,18,00,49,16.60
2018,06,18,00,50,16.60
2018,06,18,00,51,16.60
2018,06,18,00,52,16.60
2018,06,18,00,53,16.60
2018,06,18,00,54,16.50
2018,06,18,00,55,16.50
2018,06,18,00,56,16.50
2018,06,18,00,57,16.40
2018,06,18,00,58,16.40
2018,06,18,00,59,16.40
2018,06,18,01,00,16.30
2018,06,18,01,01,16.30
2018,06,18,01,02,16.30
2018,06,18,01,03,16.30
2018,06,18,01,04,16.30
2018,06,18,01,05,16.20
2018,06,18,01,06,16.20
2018,06,18,01,07,16.20
2018,06,18,01,08,16.20
2018,06,18,01,09,16.10
2018,06,18,01,10,16.10
2018,06,18,01,11,16.10
2018,06,18,01,12,16.10
2018,06,18,01,13,16.00
2018,06,18,01,14,16.00
2018,06,18,01,15,16.00
2018,06,18,01,16,16.00
2018,06,18,01,17,15.90
2018,06,18,01,18,15.90
2018,06,18,01,19,15.90
2018,06,18,01,20,15.90
2018,06,18,01,21,15.90
2018,06,18,01,22,15.90
2018,06,18,01,23,15.90
2018,06,18,01,24,15.80
2018,06,18,01,25,15.80
2018,06,18,01,26,15.80
2018,06,18,01,27,15.80
2018,06,18,01,28,15.80
2018,06,18,01,29,15.80
2018,06,18,01,30,15.80
2018,06,18,01,31,15.70
2018,06,18,01,32,15.70
2018,06,18,01,33,15.70
2018,06,18,01,34,15.70
2018,06,18,01,35,15.70
2018,06,18,01,36,15.60
2018,06,18,01,37,15.60
2018,06,18,01,38,15.60
2018,06,18,01,39,15.60
2018,06,18,01,40,15.60
2018,06,18,01,41,15.50
2018,06,18,01,42,15.50
2018,06,18,01,43,15.50
2018,06,18,01,44,15.40
2018,06,18,01,45,15.40
2018,06,18,01,46,15.40
2018,06,18,01,47,15.40
2018,06,18,01,48,15.40
2018,06,18,01,49,15.40
2018,06,18,01,50,15.40
2018,06,18,01,51,15.30
2018,06,18,01,52,15.30
2018,06,18,01,53,15.30
2018,06,18,01,54,15.30
2018,06,18,01,55,15.30
2018,06,18,01,56,15.30
2018,06,18,01,57,15.30
2018,06,18,01,58,15.30
2018,06,18,01,59,15.20
2018,06,18,02,00,15.20
2018,06,18,02,01,15.20
2018,06,18,02,02,15.30
2018,06,18,02,03,15.30
2018,06,18,02,04,15.30
2018,06,18,02,05,15.30
2018,06,18,02,06,15.30
2018,06,18,02,07,15.30
2018,06,18,02,08,15.30
2018,06,18,02,09,15.30
2018,06,18,02,10,15.30
2018,06,18,02,11,15.30
2018,06,18,02,12,15.40
2018,06,18,02,13,15.40
2018,06,18,02,14,15.40
2018,06,18,02,15,15.40
2018,06,18,02,16,15.40
2018,06,18,02,17,15.40
2018,06,18,02,18,15.40
2018,06,18,02,19,15.40
2018,06,18,02,20,15.40
2018,06,18,02,21,15.40
2018,06,18,02,22,15.40
2018,06,18,02,23,15.40
2018,06,18,02,24,15.40
2018,06,18,02,25,15.40
2018,06,18,02,26,15.40
2018,06,18,02,27,15.40
2018,06,18,02,28,15.40
2018,06,18,02,29,15.40
2018,06,18,02,30,15.40
2018,06,18,02,31,15.50
2018,06,18,02,32,15.40
2018,06,18,02,33,15.40
2018,06,18,02,34,15.50
2018,06,18,02,35,15.40
2018,06,18,02,36,15.50
2018,06,18,02,37,15.40
2018,06,18,02,38,15.40
2018,06,18,02,39,15.40
2018,06,18,02,40,15.30
2018,06,18,02,41,15.30
2018,06,18,02,42,15.30
2018,06,18,02,43,15.20
2018,06,18,02,44,15.20
2018,06,18,02,45,15.20
2018,06,18,02,46,15.20
2018,06,18,02,47,15.20
2018,06,18,02,48,15.20
2018,06,18,02,49,15.20
2018,06,18,02,50,15.10
2018,06,18,02,51,15.10
2018,06,18,02,52,15.10
2018,06,18,02,53,15.10
2018,06,18,02,54,15.10
2018,06,18,02,55,15.10
2018,06,18,02,56,15.10
2018,06,18,02,57,15.10
2018,06,18,02,58,15.10
2018,06,18,02,59,15.10
2018,06,18,03,00,15.10
2018,06,18,03,01,15.20
2018,06,18,03,02,15.20
2018,06,18,03,03,15.20
2018,06,18,03,04,15.20
2018,06,18,03,05,15.20
2018,06,18,03,06,15.10
2018,06,18,03,07,15.10
2018,06,18,03,08,15.10
2018,06,18,03,09,15.10
2018,06,18,03,10,15.10
2018,06,18,03,11,15.10
2018,06,18,03,12,15.10
2018,06,18,03,13,15.00
2018,06,18,03,14,15.00
2018,06,18,03,15,15.00
2018,06,18,03,16,15.00
2018,06,18,03,17,15.00
2018,06,18,03,18,14.90
2018,06,18,03,19,14.90
2018,06,18,03,20,14.90
2018,06,18,03,21,14.90
2018,06,18,03,22,14.90
2018,06,18,03,23,14.90
2018,06,18,03,24,14.90
2018,06,18,03,25,14.80
2018,06,18,03,26,14.80
2018,06,18,03,27,14.80
2018,06,18,03,28,14.80
2018,06,18,03,29,14.80
2018,06,18,03,30,14.70
2018,06,18,03,31,14.70
2018,06,18,03,32,14.70
2018,06,18,03,33,14.70
2018,06,18,03,34,14.70
2018,06,18,03,35,14.70
2018,06,18,03,36,14.70
2018,06,18,03,37,14.70
2018,06,18,03,38,14.70
2018,06,18,03,39,14.70
2018,06,18,03,40,14.70
2018,06,18,03,41,14.70
2018,06,18,03,42,14.70
2018,06,18,03,43,14.70
2018,06,18,03,44,14.70
2018,06,18,03,45,14.70
2018,06,18,03,46,14.70
2018,06,18,03,47,14.70
2018,06,18,03,48,14.70
2018,06,18,03,49,14.70
2018,06,18,03,50,14.60
2018,06,18,03,51,14.60
2018,06,18,03,52,14.60
2018,06,18,03,53,14.60
2018,06,18,03,54,14.50
2018,06,18,03,55,14.50
2018,06,18,03,56,14.50
2018,06,18,03,57,14.50
2018,06,18,03,58,14.40
2018,06,18,03,59,14.40
2018,06,18,04,00,14.40
2018,06,18,04,01,14.40
2018,06,18,04,02,14.40
2018,06,18,04,03,14.40
2018,06,18,04,04,14.40
2018,06,18,04,05,14.40
2018,06,18,04,06,14.40
2018,06,18,04,07,14.30
2018,06,18,04,08,14.30
2018,06,18,04,09,14.30
2018,06,18,04,10,14.30
2018,06,18,04,11,14.30
2018,06,18,04,12,14.30
2018,06,18,04,13,14.30
2018,06,18,04,14,14.30
2018,06,18,04,15,14.30
2018,06,18,04,16,14.30
2018,06,18,04,17,14.30
2018,06,18,04,18,14.30
2018,06,18,04,19,14.20
2018,06,18,04,20,14.20
2018,06,18,04,21,14.20
2018,06,18,04,22,14.20
2018,06,18,04,23,14.20
2018,06,18,04,24,14.10
2018,06,18,04,25,14.10
2018,06,18,04,26,14.10
2018,06,18,04,27,14.00
2018,06,18,04,28,14.00
2018,06,18,04,29,14.00
2018,06,18,04,30,14.00
2018,06,18,04,31,14.00
2018,06,18,04,32,14.00
2018,06,18,04,33,13.90
2018,06,18,04,34,14.00
2018,06,18,04,35,13.90
2018,06,18,04,36,13.90
2018,06,18,04,37,13.90
2018,06,18,04,38,13.90
2018,06,18,04,39,13.90
2018,06,18,04,40,13.90
2018,06,18,04,41,14.00
2018,06,18,04,42,13.90
2018,06,18,04,43,13.90
2018,06,18,04,44,13.90
2018,06,18,04,45,13.90
2018,06,18,04,46,13.80
2018,06,18,04,47,13.80
2018,06,18,04,48,13.80
2018,06,18,04,49,13.80
2018,06,18,04,50,13.80
2018,06,18,04,51,13.80
2018,06,18,04,52,13.80
2018,06,18,04,53,13.80
2018,06,18,04,54,13.70
2018,06,18,04,55,13.70
2018,06,18,04,56,13.70
2018,06,18,04,57,13.70
2018,06,18,04,58,13.70
2018,06,18,04,59,13.60
2018,06,18,05,00,13.60
2018,06,18,05,01,13.60
2018,06,18,05,02,13.60
2018,06,18,05,03,13.60
2018,06,18,05,04,13.60
2018,06,18,05,05,13.60
2018,06,18,05,06,13.60
2018,06,18,05,07,13.50
2018,06,18,05,08,13.50
2018,06,18,05,09,13.50
2018,06,18,05,10,13.50
2018,06,18,05,11,13.50
2018,06,18,05,12,13.50
2018,06,18,05,13,13.50
2018,06,18,05,14,13.50
2018,06,18,05,15,13.50
2018,06,18,05,16,13.50
2018,06,18,05,17,13.50
2018,06,18,05,18,13.50
2018,06,18,05,19,13.50
2018,06,18,05,20,13.50
2018,06,18,05,21,13.50
2018,06,18,05,22,13.50
2018,06,18,05,23,13.50
2018,06,18,05,24,13.50
2018,06,18,05,25,13.50
2018,06,18,05,26,13.50
2018,06,18,05,27,13.40
2018,06,18,05,28,13.40
2018,06,18,05,29,13.40
2018,06,18,05,30,13.40
2018,06,18,05,31,13.40
2018,06,18,05,32,13.40
2018,06,18,05,33,13.40
2018,06,18,05,34,13.40
2018,06,18,05,35,13.40
2018,06,18,05,36,13.40
2018,06,18,05,37,13.40
2018,06,18,05,38,13.40
2018,06,18,05,39,13.40
2018,06,18,05,40,13.40
2018,06,18,05,41,13.40
2018,06,18,05,42,13.40
2018,06,18,05,43,13.40
2018,06,18,05,44,13.40
2018,06,18,05,45,13.40
2018,06,18,05,46,13.40
2018,06,18,05,47,13.40
2018,06,18,05,48,13.40
2018,06,18,05,49,13.40
2018,06,18,05,50,13.40
2018,06,18,05,51,13.40
2018,06,18,05,52,13.40
2018,06,18,05,53,13.40
2018,06,18,05,54,13.40
2018,06,18,05,55,13.40
2018,06,18,05,56,13.40
2018,06,18,05,57,13.40
2018,06,18,05,58,13.40
2018,06,18,05,59,13.40
2018,06,18,06,00,13.40
2018,06,18,06,01,13.40
2018,06,18,06,02,13.40
2018,06,18,06,03,13.40
2018,06,18,06,04,13.40
2018,06,18,06,05,13.40
2018,06,18,06,06,13.40
2018,06,18,06,07,13.40
2018,06,18,06,08,13.40
2018,06,18,06,09,13.40
2018,06,18,06,10,13.40
2018,06,18,06,11,13.40
2018,06,18,06,12,13.40
2018,06,18,06,13,13.40
2018,06,18,06,14,13.40
2018,06,18,06,15,13.40
2018,06,18,06,16,13.40
2018,06,18,06,17,13.40
2018,06,18,06,18,13.40
2018,06,18,06,19,13.40
2018,06,18,06,20,13.40
2018,06,18,06,21,13.40
2018,06,18,06,22,13.40
2018,06,18,06,23,13.30
2018,06,18,06,24,13.30
2018,06,18,06,25,13.30
2018,06,18,06,26,13.30
2018,06,18,06,27,13.30
2018,06,18,06,28,13.30
2018,06,18,06,29,13.30
2018,06,18,06,30,13.30
2018,06,18,06,31,13.30
2018,06,18,06,32,13.30
2018,06,18,06,33,13.30
2018,06,18,06,34,13.40
2018,06,18,06,35,13.40
2018,06,18,06,36,13.50
2018,06,18,06,37,13.50
2018,06,18,06,38,13.60
2018,06,18,06,39,13.70
2018,06,18,06,40,13.80
2018,06,18,06,41,13.90
2018,06,18,06,42,14.00
2018,06,18,06,43,14.10
2018,06,18,06,44,14.20
2018,06,18,06,45,14.40
2018,06,18,06,46,14.50
2018,06,18,06,47,14.60
2018,06,18,06,48,14.80
2018,06,18,06,49,14.90
2018,06,18,06,50,15.10
2018,06,18,06,51,15.20
2018,06,18,06,52,15.40
2018,06,18,06,53,15.50
2018,06,18,06,54,15.70
2018,06,18,06,55,15.80
2018,06,18,06,56,16.00
2018,06,18,06,57,16.00
2018,06,18,06,58,16.10
2018,06,18,06,59,16.20
2018,06,18,07,00,16.20
2018,06,18,07,01,16.30
2018,06,18,07,02,16.40
2018,06,18,07,03,16.50
2018,06,18,07,04,16.70
2018,06,18,07,05,16.80
2018,06,18,07,06,16.90
2018,06,18,07,07,17.00
2018,06,18,07,08,17.10
2018,06,18,07,09,17.20
2018,06,18,07,10,17.20
2018,06,18,07,11,17.40
2018,06,18,07,12,17.50
2018,06,18,07,13,17.60
2018,06,18,07,14,17.80
2018,06,18,07,15,17.90
2018,06,18,07,16,18.10
2018,06,18,07,17,18.20
2018,06,18,07,18,18.30
2018,06,18,07,19,18.40
2018,06,18,07,20,18.50
2018,06,18,07,21,18.50
2018,06,18,07,22,18.60
2018,06,18,07,23,18.70
2018,06,18,07,24,18.80
2018,06,18,07,25,18.90
2018,06,18,07,26,18.90
2018,06,18,07,27,19.00
2018,06,18,07,28,19.00
2018,06,18,07,29,19.00
2018,06,18,07,30,19.10
2018,06,18,07,31,19.10
2018,06,18,07,32,19.10
2018,06,18,07,33,19.10
2018,06,18,07,34,19.20
2018,06,18,07,35,19.20
2018,06,18,07,36,19.20
2018,06,18,07,37,19.20
2018,06,18,07,38,19.20
2018,06,18,07,39,19.30
2018,06,18,07,40,19.30
2018,06,18,07,41,19.30
2018,06,18,07,42,19.40
2018,06,18,07,43,19.50
2018,06,18,07,44,19.60
2018,06,18,07,45,19.70
2018,06,18,07,46,19.90
2018,06,18,07,47,20.10
2018,06,18,07,48,20.20
2018,06,18,07,49,20.40
2018,06,18,07,50,20.50
2018,06,18,07,51,20.60
2018,06,18,07,52,20.70
2018,06,18,07,53,20.80
2018,06,18,07,54,20.80
2018,06,18,07,55,20.90
2018,06,18,07,56,21.00
2018,06,18,07,57,21.20
2018,06,18,07,58,21.30
2018,06,18,07,59,21.40
2018,06,18,08,00,21.40
2018,06,18,08,01,21.60
2018,06,18,08,02,21.70
2018,06,18,08,03,21.80
2018,06,18,08,04,22.00
2018,06,18,08,05,22.20
2018,06,18,08,06,22.30
2018,06,18,08,07,22.40
2018,06,18,08,08,22.50
2018,06,18,08,09,22.50
2018,06,18,08,10,22.60
2018,06,18,08,11,22.70
2018,06,18,08,12,22.80
2018,06,18,08,13,23.00
2018,06,18,08,14,23.10
2018,06,18,08,15,23.20
2018,06,18,08,16,23.20
2018,06,18,08,17,23.30
2018,06,18,08,18,23.40
2018,06,18,08,19,23.50
2018,06,18,08,20,23.50
2018,06,18,08,21,23.70
2018,06,18,08,22,23.70
2018,06,18,08,23,23.80
2018,06,18,08,24,23.80
2018,06,18,08,25,23.80
2018,06,18,08,26,23.90
2018,06,18,08,27,23.90
2018,06,18,08,28,23.90
2018,06,18,08,29,24.00
2018,06,18,08,30,24.10
2018,06,18,08,31,24.20
2018,06,18,08,32,24.30
2018,06,18,08,33,24.30
2018,06,18,08,34,24.40
2018,06,18,08,35,24.40
2018,06,18,08,36,24.50
2018,06,18,08,37,24.60
2018,06,18,08,38,24.60
2018,06,18,08,39,24.50
2018,06,18,08,40,24.50
2018,06,18,08,41,24.60
2018,06,18,08,42,24.60
2018,06,18,08,43,24.60
2018,06,18,08,44,24.50
2018,06,18,08,45,24.60
2018,06,18,08,46,24.60
2018,06,18,08,47,24.60
2018,06,18,08,48,24.60
2018,06,18,08,49,24.60
2018,06,18,08,50,24.70
2018,06,18,08,51,24.70
2018,06,18,08,52,24.80
2018,06,18,08,53,24.90
2018,06,18,08,54,25.00
2018,06,18,08,55,25.00
2018,06,18,08,56,25.00
2018,06,18,08,57,24.90
2018,06,18,08,58,24.80
2018,06,18,08,59,24.80
2018,06,18,09,00,24.90
2018,06,18,09,01,24.90
2018,06,18,09,02,25.00
2018,06,18,09,03,25.00
2018,06,18,09,04,25.10
2018,06,18,09,05,25.20
2018,06,18,09,06,25.20
2018,06,18,09,07,25.30
2018,06,18,09,08,25.40
2018,06,18,09,09,25.40
2018,06,18,09,10,25.30
2018,06,18,09,11,25.30
2018,06,18,09,12,25.30
2018,06,18,09,13,25.30
2018,06,18,09,14,25.30
2018,06,18,09,15,25.30
2018,06,18,09,16,25.30
2018,06,18,09,17,25.30
2018,06,18,09,18,25.30
2018,06,18,09,19,25.30
2018,06,18,09,20,25.40
2018,06,18,09,21,25.50
2018,06,18,09,22,25.60
2018,06,18,09,23,25.70
2018,06,18,09,24,25.70
2018,06,18,09,25,25.80
2018,06,18,09,26,25.80
2018,06,18,09,27,25.80
2018,06,18,09,28,25.80
2018,06,18,09,29,25.80
2018,06,18,09,30,25.90
2018,06,18,09,31,25.90
2018,06,18,09,32,25.90
2018,06,18,09,33,25.90
2018,06,18,09,34,26.00
2018,06,18,09,35,26.10
2018,06,18,09,36,26.20
2018,06,18,09,37,26.20
2018,06,18,09,38,26.20
2018,06,18,09,39,26.30
2018,06,18,09,40,26.30
2018,06,18,09,41,26.40
2018,06,18,09,42,26.50
2018,06,18,09,43,26.60
2018,06,18,09,44,26.60
2018,06,18,09,45,26.60
2018,06,18,09,46,26.50
2018,06,18,09,47,26.50
2018,06,18,09,48,26.40
2018,06,18,09,49,26.30
2018,06,18,09,50,26.30
2018,06,18,09,51,26.40
2018,06,18,09,52,26.40
2018,06,18,09,53,26.40
2018,06,18,09,54,26.40
2018,06,18,09,55,26.30
2018,06,18,09,56,26.30
2018,06,18,09,57,26.20
2018,06,18,09,58,26.20
2018,06,18,09,59,26.20
2018,06,18,10,00,26.20
2018,06,18,10,01,26.30
2018,06,18,10,02,26.30
2018,06,18,10,03,26.30
2018,06,18,10,04,26.30
2018,06,18,10,05,26.30
2018,06,18,10,06,26.30
2018,06,18,10,07,26.40
2018,06,18,10,08,26.50
2018,06,18,10,09,26.60
2018,06,18,10,10,26.70
2018,06,18,10,11,26.70
2018,06,18,10,12,26.80
2018,06,18,10,13,26.90
2018,06,18,10,14,27.00
2018,06,18,10,15,27.10
2018,06,18,10,16,27.20
2018,06,18,10,17,27.30
2018,06,18,10,18,27.30
2018,06,18,10,19,27.20
2018,06,18,10,20,27.20
2018,06,18,10,21,27.20
2018,06,18,10,22,27.20
2018,06,18,10,23,27.30
2018,06,18,10,24,27.30
2018,06,18,10,25,27.30
2018,06,18,10,26,27.20
2018,06,18,10,27,27.20
2018,06,18,10,28,27.20
2018,06,18,10,29,27.10
2018,06,18,10,30,27.20
2018,06,18,10,31,27.30
2018,06,18,10,32,27.40
2018,06,18,10,33,27.40
2018,06,18,10,34,27.40
2018,06,18,10,35,27.40
2018,06,18,10,36,27.20
2018,06,18,10,37,27.00
2018,06,18,10,38,26.80
2018,06,18,10,39,26.60
2018,06,18,10,40,26.50
2018,06,18,10,41,26.40
2018,06,18,10,42,26.20
2018,06,18,10,43,26.10
2018,06,18,10,44,26.10
2018,06,18,10,45,26.00
2018,06,18,10,46,26.00
2018,06,18,10,47,26.00
2018,06,18,10,48,26.10
2018,06,18,10,49,26.10
2018,06,18,10,50,26.10
2018,06,18,10,51,26.00
2018,06,18,10,52,25.90
2018,06,18,10,53,26.00
2018,06,18,10,54,25.90
2018,06,18,10,55,25.80
2018,06,18,10,56,25.70
2018,06,18,10,57,25.70
2018,06,18,10,58,25.70
2018,06,18,10,59,25.80
2018,06,18,11,00,25.90
2018,06,18,11,01,26.00
2018,06,18,11,02,26.00
2018,06,18,11,03,26.10
2018,06,18,11,04,26.00
2018,06,18,11,05,26.10
2018,06,18,11,06,26.20
2018,06,18,11,07,26.30
2018,06,18,11,08,26.40
2018,06,18,11,09,26.50
2018,06,18,11,10,26.60
2018,06,18,11,11,26.80
2018,06,18,11,12,26.90
2018,06,18,11,13,26.90
2018,06,18,11,14,26.90
2018,06,18,11,15,26.70
2018,06,18,11,16,26.60
2018,06,18,11,17,26.50
2018,06,18,11,18,26.60
2018,06,18,11,19,26.60
2018,06,18,11,20,26.70
2018,06,18,11,21,26.70
2018,06,18,11,22,26.60
2018,06,18,11,23,26.60
2018,06,18,11,24,26.60
2018,06,18,11,25,26.70
2018,06,18,11,26,26.80
2018,06,18,11,27,26.90
2018,06,18,11,28,27.10
2018,06,18,11,29,27.20
2018,06,18,11,30,27.30
2018,06,18,11,31,27.40
2018,06,18,11,32,27.40
2018,06,18,11,33,27.40
2018,06,18,11,34,27.50
2018,06,18,11,35,27.50
2018,06,18,11,36,27.40
2018,06,18,11,37,27.40
2018,06,18,11,38,27.40
2018,06,18,11,39,27.40
2018,06,18,11,40,27.40
2018,06,18,11,41,27.40
2018,06,18,11,42,27.40
2018,06,18,11,43,27.50
2018,06,18,11,44,27.60
2018,06,18,11,45,27.80
2018,06,18,11,46,27.90
2018,06,18,11,47,28.00
2018,06,18,11,48,28.00
2018,06,18,11,49,27.90
2018,06,18,11,50,27.90
2018,06,18,11,51,28.00
2018,06,18,11,52,28.00
2018,06,18,11,53,28.10
2018,06,18,11,54,28.20
2018,06,18,11,55,28.20
2018,06,18,11,56,28.20
2018,06,18,11,57,28.10
2018,06,18,11,58,28.00
2018,06,18,11,59,27.90
2018,06,18,12,00,27.90
2018,06,18,12,01,27.80
2018,06,18,12,02,27.80
2018,06,18,12,03,27.80
2018,06,18,12,04,27.80
2018,06,18,12,05,27.90
2018,06,18,12,06,28.00
2018,06,18,12,07,28.10
2018,06,18,12,08,28.20
2018,06,18,12,09,28.20
2018,06,18,12,10,28.20
2018,06,18,12,11,28.20
2018,06,18,12,12,28.20
2018,06,18,12,13,28.30
2018,06,18,12,14,28.40
2018,06,18,12,15,28.40
2018,06,18,12,16,28.40
2018,06,18,12,17,28.40
2018,06,18,12,18,28.40
2018,06,18,12,19,28.40
2018,06,18,12,20,28.40
2018,06,18,12,21,28.40
2018,06,18,12,22,28.40
2018,06,18,12,23,28.40
2018,06,18,12,24,28.40
2018,06,18,12,25,28.30
2018,06,18,12,26,28.20
2018,06,18,12,27,28.10
2018,06,18,12,28,28.10
2018,06,18,12,29,28.10
2018,06,18,12,30,28.00
2018,06,18,12,31,27.80
2018,06,18,12,32,27.80
2018,06,18,12,33,27.70
2018,06,18,12,34,27.60
2018,06,18,12,35,27.60
2018,06,18,12,36,27.60
2018,06,18,12,37,27.70
2018,06,18,12,38,27.70
2018,06,18,12,39,27.80
2018,06,18,12,40,27.70
2018,06,18,12,41,27.80
2018,06,18,12,42,27.70
2018,06,18,12,43,27.70
2018,06,18,12,44,27.70
2018,06,18,12,45,27.70
2018,06,18,12,46,27.80
2018,06,18,12,47,27.90
2018,06,18,12,48,28.00
2018,06,18,12,49,28.00
2018,06,18,12,50,28.10
2018,06,18,12,51,28.10
2018,06,18,12,52,28.10
2018,06,18,12,53,28.20
2018,06,18,12,54,28.20
2018,06,18,12,55,28.20
2018,06,18,12,56,28.20
2018,06,18,12,57,28.20
2018,06,18,12,58,28.10
2018,06,18,12,59,28.20
2018,06,18,13,00,28.20
2018,06,18,13,01,28.10
2018,06,18,13,02,28.10
2018,06,18,13,03,28.10
2018,06,18,13,04,28.00
2018,06,18,13,05,28.10
2018,06,18,13,06,28.10
2018,06,18,13,07,28.00
2018,06,18,13,08,28.00
2018,06,18,13,09,28.10
2018,06,18,13,10,28.20
2018,06,18,13,11,28.30
2018,06,18,13,12,28.40
2018,06,18,13,13,28.40
2018,06,18,13,14,28.30
2018,06,18,13,15,28.20
2018,06,18,13,16,28.20
2018,06,18,13,17,28.20
2018,06,18,13,18,28.00
2018,06,18,13,19,27.90
2018,06,18,13,20,27.60
2018,06,18,13,21,27.50
2018,06,18,13,22,27.40
2018,06,18,13,23,27.50
2018,06,18,13,24,27.60
2018,06,18,13,25,27.60
2018,06,18,13,26,27.60
2018,06,18,13,27,27.60
2018,06,18,13,28,27.60
2018,06,18,13,29,27.70
2018,06,18,13,30,27.70
2018,06,18,13,31,27.60
2018,06,18,13,32,27.60
2018,06,18,13,33,27.50
2018,06,18,13,34,27.50
2018,06,18,13,35,27.50
2018,06,18,13,36,27.60
2018,06,18,13,37,27.70
2018,06,18,13,38,27.80
2018,06,18,13,39,27.90
2018,06,18,13,40,27.90
2018,06,18,13,41,27.90
2018,06,18,13,42,27.90
2018,06,18,13,43,27.90
2018,06,18,13,44,27.90
2018,06,18,13,45,27.90
2018,06,18,13,46,28.00
2018,06,18,13,47,28.10
2018,06,18,13,48,28.20
2018,06,18,13,49,28.20
2018,06,18,13,50,28.30
2018,06,18,13,51,28.30
2018,06,18,13,52,28.30
2018,06,18,13,53,28.40
2018,06,18,13,54,28.40
2018,06,18,13,55,28.50
2018,06,18,13,56,28.50
2018,06,18,13,57,28.40
2018,06,18,13,58,28.50
2018,06,18,13,59,28.50
2018,06,18,14,00,28.60
2018,06,18,14,01,28.60
2018,06,18,14,02,28.70
2018,06,18,14,03,28.80
2018,06,18,14,04,29.00
2018,06,18,14,05,29.30
2018,06,18,14,06,29.40
2018,06,18,14,07,29.60
2018,06,18,14,08,29.60
2018,06,18,14,09,29.70
2018,06,18,14,10,29.80
2018,06,18,14,11,29.80
2018,06,18,14,12,29.90
2018,06,18,14,13,30.00
2018,06,18,14,14,30.10
2018,06,18,14,15,30.30
2018,06,18,14,16,30.40
2018,06,18,14,17,30.40
2018,06,18,14,18,30.40
2018,06,18,14,19,30.30
2018,06,18,14,20,30.30
2018,06,18,14,21,30.30
2018,06,18,14,22,30.30
2018,06,18,14,23,30.40
2018,06,18,14,24,30.50
2018,06,18,14,25,30.50
2018,06,18,14,26,30.50
2018,06,18,14,27,30.60
2018,06,18,14,28,30.60
2018,06,18,14,29,30.70
2018,06,18,14,30,30.60
2018,06,18,14,31,30.60
2018,06,18,14,32,30.70
2018,06,18,14,33,30.80
2018,06,18,14,34,30.90
2018,06,18,14,35,31.00
2018,06,18,14,36,31.00
2018,06,18,14,37,31.10
2018,06,18,14,38,31.10
2018,06,18,14,39,31.20
2018,06,18,14,40,31.10
2018,06,18,14,41,31.10
2018,06,18,14,42,31.20
2018,06,18,14,43,31.30
2018,06,18,14,44,31.30
2018,06,18,14,45,31.30
2018,06,18,14,46,31.30
2018,06,18,14,47,31.20
2018,06,18,14,48,31.20
2018,06,18,14,49,31.20
2018,06,18,14,50,31.20
2018,06,18,14,51,31.30
2018,06,18,14,52,31.50
2018,06,18,14,53,31.60
2018,06,18,14,54,31.60
2018,06,18,14,55,31.70
2018,06,18,14,56,31.70
2018,06,18,14,57,31.60
2018,06,18,14,58,31.50
2018,06,18,14,59,31.40
2018,06,18,15,00,31.30
2018,06,18,15,01,31.30
2018,06,18,15,02,31.30
2018,06,18,15,03,31.30
2018,06,18,15,04,31.40
2018,06,18,15,05,31.50
2018,06,18,15,06,31.50
2018,06,18,15,07,31.60
2018,06,18,15,08,31.50
2018,06,18,15,09,31.50
2018,06,18,15,10,31.50
2018,06,18,15,11,31.40
2018,06,18,15,12,31.30
2018,06,18,15,13,31.40
2018,06,18,15,14,31.50
2018,06,18,15,15,31.50
2018,06,18,15,16,31.60
2018,06,18,15,17,31.70
2018,06,18,15,18,31.70
2018,06,18,15,19,31.70
2018,06,18,15,20,31.70
2018,06,18,15,21,31.80
2018,06,18,15,22,31.80
2018,06,18,15,23,31.90
2018,06,18,15,24,31.90
2018,06,18,15,25,32.00
2018,06,18,15,26,32.10
2018,06,18,15,27,32.10
2018,06,18,15,28,32.10
2018,06,18,15,29,32.20
2018,06,18,15,30,32.20
2018,06,18,15,31,32.10
2018,06,18,15,32,32.00
2018,06,18,15,33,31.90
2018,06,18,15,34,31.80
2018,06,18,15,35,31.80
2018,06,18,15,36,31.80
2018,06,18,15,37,31.80
2018,06,18,15,38,31.80
2018,06,18,15,39,31.80
2018,06,18,15,40,31.80
2018,06,18,15,41,31.70
2018,06,18,15,42,31.70
2018,06,18,15,43,31.80
2018,06,18,15,44,31.80
2018,06,18,15,45,31.90
2018,06,18,15,46,31.90
2018,06,18,15,47,31.80
2018,06,18,15,48,31.80
2018,06,18,15,49,31.80
2018,06,18,15,50,31.80
2018,06,18,15,51,31.80
2018,06,18,15,52,31.80
2018,06,18,15,53,31.80
2018,06,18,15,54,31.90
2018,06,18,15,55,31.90
2018,06,18,15,56,31.90
2018,06,18,15,57,31.80
2018,06,18,15,58,31.80
2018,06,18,15,59,31.80
2018,06,18,16,00,31.90
2018,06,18,16,01,32.00
2018,06,18,16,02,32.00
2018,06,18,16,03,32.00
2018,06,18,16,04,32.00
2018,06,18,16,05,32.10
2018,06,18,16,06,32.10
2018,06,18,16,07,32.10
2018,06,18,16,08,32.10
2018,06,18,16,09,32.10
2018,06,18,16,10,32.20
2018,06,18,16,11,32.10
2018,06,18,16,12,32.10
2018,06,18,16,13,32.00
2018,06,18,16,14,32.00
2018,06,18,16,15,32.00
2018,06,18,16,16,32.00
2018,06,18,16,17,31.90
2018,06,18,16,18,31.90
2018,06,18,16,19,32.00
2018,06,18,16,20,32.00
2018,06,18,16,21,32.00
2018,06,18,16,22,31.90
2018,06,18,16,23,32.00
2018,06,18,16,24,32.10
2018,06,18,16,25,32.10
2018,06,18,16,26,32.00
2018,06,18,16,27,31.90
2018,06,18,16,28,31.90
2018,06,18,16,29,31.90
2018,06,18,16,30,31.90
2018,06,18,16,31,31.90
2018,06,18,16,32,31.90
2018,06,18,16,33,31.90
2018,06,18,16,34,31.90
2018,06,18,16,35,31.90
2018,06,18,16,36,31.80
2018,06,18,16,37,31.90
2018,06,18,16,38,31.90
2018,06,18,16,39,31.90
2018,06,18,16,40,31.90
2018,06,18,16,41,31.90
2018,06,18,16,42,32.00
2018,06,18,16,43,32.00
2018,06,18,16,44,32.10
2018,06,18,16,45,32.10
2018,06,18,16,46,32.10
2018,06,18,16,47,32.10
2018,06,18,16,48,32.10
2018,06,18,16,49,32.20
2018,06,18,16,50,32.10
2018,06,18,16,51,31.90
2018,06,18,16,52,31.80
2018,06,18,16,53,31.70
2018,06,18,16,54,31.60
2018,06,18,16,55,31.60
2018,06,18,16,56,31.70
2018,06,18,16,57,31.80
2018,06,18,16,58,31.80
2018,06,18,16,59,31.70
2018,06,18,17,00,31.70
2018,06,18,17,01,31.60
2018,06,18,17,02,31.50
2018,06,18,17,03,31.50
2018,06,18,17,04,31.40
2018,06,18,17,05,31.40
2018,06,18,17,06,31.30
2018,06,18,17,07,31.30
2018,06,18,17,08,31.40
2018,06,18,17,09,31.40
2018,06,18,17,10,31.40
2018,06,18,17,11,31.40
2018,06,18,17,12,31.40
2018,06,18,17,13,31.40
2018,06,18,17,14,31.40
2018,06,18,17,15,31.40
2018,06,18,17,16,31.40
2018,06,18,17,17,31.50
2018,06,18,17,18,31.60
2018,06,18,17,19,31.60